Weather History for Fullerton, CA

Change the Weather History Date:

Saturday, May 10, 2014

  Actual Average Record
Temperature  
Mean Temperature 67 °F 66 °F  
Max Temperature 74 °F 75 °F 84 °F (2007)
Min Temperature 60 °F 57 °F 50 °F (2005)
Degree Days  
Heating Degree Days 0 1  
Month to date heating degree days 2 15  
Since 1 July heating degree days 591 1209  
Cooling Degree Days 2 2  
Month to date cooling degree days 50 20  
Year to date cooling degree days 197 72  
Growing Degree Days 16 (Base 50)    
Moisture  
Dew Point 53 °F    
Average Humidity 64    
Maximum Humidity 84    
Minimum Humidity 44    
Precipitation  
Precipitation 0.00 in 0.01 in 0.19 in (1980)
Month to date precipitation 0.00 0.15  
Year to date precipitation 3.46 9.46  
Since 1 July precipitation 4.77 13.69  
Snow  
Snow 0.00 in - - ()
Month to date snowfall 0.0  
Year to date snowfall 0.0  
Since 1 July snowfall 0.0  
Snow Depth 0.00 in    
Sea Level Pressure  
Sea Level Pressure 29.90 in    
Wind  
Wind Speed 5 mph (South)    
Max Wind Speed 13 mph    
Max Gust Speed 19 mph    
Visibility 10 miles    
Events      
T = Trace of Precipitation, MM = Missing Value Source: NWS Daily Summary

Daily Weather History Graph

Daily Weather History Graph

Search for Another Location

Airport:

Trip Planner

Search our weather history database for the weather conditions in past years. The results will help you decide how hot, cold, wet, or windy it might be!

Date:

Astronomy

May. 10, 2014 Rise Set
Actual Time 5:54 AM PDT 7:42 PM PDT
Civil Twilight 5:27 AM PDT 8:09 PM PDT
Nautical Twilight 4:54 AM PDT 8:42 PM PDT
Astronomical Twilight 4:19 AM PDT 9:17 PM PDT
Moon 3:53 PM PDT (5/10) 3:17 AM PDT (5/10)
Length of Visible Light 14h 42m
Length of Day
13h 47m
Waxing Gibbous, 83% of the Moon is Illuminated
May 10
Waxing Gibbous
May 14
Full
May 21
Last Quarter
May 28
New
Jun 5
First Quarter

Hourly Weather History & Observations

Time (PDT) Temp. Dew Point Humidity Pressure Visibility Wind Dir Wind Speed Gust Speed Precip Events Conditions
12:53 AM 60.1 °F 54.0 °F 80% 29.96 in 10.0 mi Calm Calm - N/A   Clear
1:53 AM 60.1 °F 55.0 °F 83% 29.95 in 10.0 mi Calm Calm - N/A   Scattered Clouds
2:03 AM 60.1 °F 55.0 °F 83% 29.95 in 10.0 mi SSW 3.5 mph - N/A   Mostly Cloudy
2:34 AM 61.0 °F 55.0 °F 81% 29.94 in 10.0 mi South 3.5 mph - N/A   Overcast
2:53 AM 62.1 °F 55.0 °F 78% 29.93 in 10.0 mi SSW 3.5 mph - N/A   Overcast
4:53 AM 62.1 °F 54.0 °F 75% 29.93 in 10.0 mi SSE 5.8 mph - N/A   Overcast
5:53 AM 62.1 °F 53.1 °F 72% 29.91 in 10.0 mi SE 5.8 mph - N/A   Overcast
6:53 AM 62.1 °F 53.1 °F 72% 29.94 in 10.0 mi SSE 4.6 mph - N/A   Overcast
7:49 AM 62.6 °F 53.6 °F 72% 29.95 in 10.0 mi Calm Calm - N/A   Overcast
7:53 AM 63.0 °F 53.1 °F 70% 29.95 in 10.0 mi Variable 3.5 mph - N/A   Overcast
8:42 AM 66.0 °F 53.1 °F 63% 29.95 in 10.0 mi Variable 4.6 mph - N/A   Overcast
8:53 AM 64.9 °F 52.0 °F 63% 29.95 in 10.0 mi South 4.6 mph - N/A   Overcast
9:24 AM 69.1 °F 53.1 °F 57% 29.94 in 10.0 mi Variable 4.6 mph - N/A   Scattered Clouds
9:53 AM 69.1 °F 52.0 °F 54% 29.93 in 10.0 mi Calm Calm - N/A   Scattered Clouds
10:53 AM 70.0 °F 52.0 °F 53% 29.92 in 10.0 mi Calm Calm - N/A   Partly Cloudy
11:53 AM 71.1 °F 54.0 °F 55% 29.91 in 10.0 mi SSW 9.2 mph - N/A   Mostly Cloudy
12:53 PM 72.0 °F 54.0 °F 53% 29.89 in 10.0 mi Variable 6.9 mph - N/A   Mostly Cloudy
2:53 PM 72.0 °F 54.0 °F 53% 29.86 in 10.0 mi SW 10.4 mph 16.1 mph N/A   Scattered Clouds
3:53 PM 73.0 °F 50.0 °F 44% 29.84 in 10.0 mi South 10.4 mph - N/A   Clear
4:53 PM 72.0 °F 48.0 °F 43% 29.82 in 10.0 mi South 10.4 mph - N/A   Clear
5:53 PM 68.0 °F 51.1 °F 55% 29.81 in 10.0 mi South 13.8 mph - N/A   Clear
6:53 PM 66.0 °F 48.0 °F 52% 29.81 in 10.0 mi South 6.9 mph 16.1 mph N/A   Clear
8:53 PM 63.0 °F 51.1 °F 65% 29.82 in 9.0 mi SSE 6.9 mph - N/A   Clear
9:53 PM 62.1 °F 52.0 °F 70% 29.83 in 9.0 mi SSW 3.5 mph - N/A   Clear
10:53 PM 61.0 °F 53.1 °F 75% 29.83 in 9.0 mi South 3.5 mph - N/A   Clear
11:53 PM 61.0 °F 53.1 °F 75% 29.84 in 9.0 mi South 3.5 mph - N/A   Clear